GFSNE_500_spd_000.txt.gz
Wind_Speed
74 70 67 64 59 55 51 50 50 51 49 44 44 47 50 54 58 65 74 80 79 77 69 68 70 66 59 65 66 68 73 76 79 80 82 83 83 85
63 61 55 49 47 47 49 50 49 49 50 42 41 42 43 42 43 45 53 63 72 76 76 78 65 66 66 66 65 67 75 76 80 82 83 85 87 87
46 45 47 50 51 52 54 54 54 53 56 48 45 43 45 45 46 45 40 44 52 70 76 89 77 68 61 60 68 65 68 77 81 84 83 86 88 90
46 49 51 53 56 57 58 57 57 57 58 55 54 49 46 49 50 47 46 44 39 45 58 77 95 94 61 66 68 74 73 77 78 79 79 84 88 89
53 56 58 57 55 52 50 51 51 53 56 59 58 57 52 48 49 49 46 48 43 37 43 49 73 82 78 67 65 72 75 76 83 82 84 81 84 87
58 58 54 51 50 50 48 46 46 47 49 50 54 59 59 55 50 48 48 46 53 46 46 50 47 59 83 90 75 72 74 79 82 85 90 85 80 81
53 48 48 47 47 48 48 47 46 45 45 45 45 52 57 58 56 50 47 49 49 53 53 52 48 45 46 57 73 73 83 79 80 82 85 83 80 77
44 42 42 42 42 43 42 41 40 41 44 45 43 44 51 55 56 51 48 47 49 46 51 54 52 52 44 45 55 53 54 75 82 84 88 87 78 79
41 42 44 44 43 40 40 38 35 35 36 39 39 39 43 50 52 48 46 46 45 45 44 49 52 51 54 55 52 45 48 56 68 72 79 83 85 89
42 44 45 42 40 37 36 30 31 33 33 32 33 35 38 41 44 43 44 41 40 39 41 40 47 47 49 51 51 50 53 54 58 61 65 71 74 75
41 42 43 39 35 33 30 22 21 26 30 30 30 30 31 36 38 39 39 37 35 36 38 37 39 40 44 48 50 52 55 55 57 60 65 66 67 73
37 39 39 36 30 25 25 18 15 17 18 21 23 24 26 30 33 34 35 34 32 32 36 35 37 40 41 43 47 49 51 55 60 63 64 67 71 70
31 33 33 32 28 24 21 17 11 13 14 14 13 17 22 26 28 30 31 31 30 31 35 33 35 39 40 42 46 49 51 54 55 59 64 66 68 69
27 29 30 31 30 25 22 17 9 3 3 7 11 15 18 20 22 24 26 27 26 28 30 25 27 28 30 32 35 39 43 47 51 54 57 60 64 68
24 25 26 29 30 27 22 17 12 6 6 9 11 13 15 16 18 20 21 22 22 24 25 24 25 28 31 35 40 44 44 42 44 49 52 55 57 61
20 21 22 25 26 23 19 15 12 9 10 11 12 14 14 15 16 17 19 21 21 19 15 10 8 9 13 19 30 41 43 38 36 37 46 50 51 55
18 16 17 21 22 20 17 13 9 6 7 8 9 10 11 12 12 14 14 12 10 7 4 3 4 5 7 8 14 23 27 30 29 26 23 30 42 48
16 14 13 15 18 15 13 12 12 11 10 10 10 11 11 10 10 11 10 9 7 5 5 4 3 5 8 9 4 7 11 14 13 16 21 24 27 32
16 14 12 12 12 13 10 8 7 7 7 7 8 9 8 8 8 7 6 6 5 5 4 3 3 3 6 9 4 7 11 14 18 19 19 21 26 28
16 16 13 11 11 10 9 6 4 3 2 1 2 4 4 4 5 6 6 6 6 5 4 4 3 3 4 6 6 2 10 17 18 18 18 20 22 26
18 17 17 14 12 12 10 7 5 5 6 7 7 6 5 6 6 7 7 7 7 6 5 4 4 4 5 5 6 5 5 4 5 11 17 19 20 21
19 18 18 20 17 15 13 11 10 9 8 10 11 12 12 12 11 10 10 9 9 9 8 7 7 6 7 8 7 6 6 7 7 7 6 8 12 18
20 19 18 20 21 22 19 16 14 12 11 12 13 14 15 15 16 16 15 14 14 13 12 12 12 10 10 10 11 11 10 10 10 11 11 10 9 10

GFSNE_500_spd_006.txt.gz
Wind_Speed
68 63 64 61 57 61 65 57 56 51 46 42 42 43 42 40 41 41 43 50 60 70 76 79 84 86 85 85 82 78 76 72 73 78 80 81 79 76
61 54 54 58 58 55 55 56 57 58 54 49 44 45 47 44 44 44 40 38 41 47 56 64 71 77 82 82 83 80 77 73 71 74 77 81 83 83
49 53 55 52 50 53 54 56 55 55 56 51 49 44 47 50 48 48 46 43 39 38 40 45 55 66 76 79 80 80 78 77 75 74 75 78 84 87
40 42 47 47 51 52 53 50 45 45 47 46 42 41 44 46 49 50 49 48 44 40 39 36 37 48 63 73 77 79 78 77 77 78 77 76 80 86
43 41 46 49 47 47 43 42 44 48 52 53 47 47 42 42 46 47 49 51 50 46 41 39 36 36 47 60 74 77 77 77 76 77 80 81 83 84
45 44 51 47 49 44 41 45 48 50 52 52 50 46 44 41 42 46 46 52 54 52 46 41 39 35 32 48 48 65 77 79 79 79 78 78 82 87
47 48 52 49 48 41 42 44 46 49 48 46 43 42 41 41 40 45 47 48 56 56 51 43 41 40 36 37 46 34 59 78 88 84 82 82 82 84
47 50 50 48 42 39 41 45 48 49 46 40 34 36 37 41 42 42 46 47 54 58 55 50 44 44 42 40 41 54 52 59 81 89 81 86 86 83
47 51 47 45 37 37 40 45 48 46 41 33 30 34 36 36 38 38 41 45 45 56 60 53 47 45 44 44 42 51 48 55 67 75 82 87 82 84
47 51 46 40 35 37 40 44 45 42 37 30 27 26 26 25 25 30 35 38 39 42 46 48 47 46 45 46 52 48 50 45 43 51 70 84 82 88
45 47 44 35 34 35 40 41 40 38 32 24 21 18 18 19 21 23 26 32 32 35 38 41 45 47 44 41 45 53 50 53 49 45 45 68 83 95
45 42 40 31 31 33 38 39 37 34 27 20 15 12 11 20 21 21 23 26 31 32 35 37 42 44 43 40 40 40 49 51 52 49 46 43 55 70
42 36 35 28 27 30 35 36 35 32 27 18 11 8 6 10 17 18 18 23 28 31 32 35 39 40 39 38 38 40 42 42 46 51 48 46 43 48
39 33 30 24 24 27 31 32 32 29 26 20 13 8 5 4 7 12 16 19 24 29 31 31 33 34 33 32 35 37 39 38 40 45 47 46 48 50
38 31 28 21 21 24 27 27 28 26 23 20 15 11 9 6 6 9 13 18 21 23 24 26 28 27 27 28 30 33 35 36 37 41 48 51 50 49
37 29 26 21 19 20 22 22 23 23 21 17 15 11 9 8 8 10 12 16 19 21 21 22 23 23 26 28 29 31 32 33 36 39 41 44 48 52
35 28 25 24 18 16 17 18 18 19 17 16 13 10 8 7 8 9 11 13 16 17 18 20 21 22 22 23 25 27 27 30 33 38 42 47 52 55
32 26 23 24 18 15 14 16 15 14 13 13 12 10 8 5 3 5 7 9 11 14 15 15 16 17 16 16 15 15 18 22 26 30 34 41 50 52
29 23 21 22 19 15 13 13 14 12 10 9 8 9 9 9 6 5 6 8 9 9 10 13 13 13 12 11 10 10 10 8 9 9 9 13 18 23
26 22 20 20 20 16 14 13 11 11 10 7 6 4 5 6 7 8 8 7 8 10 11 12 11 10 9 8 8 7 6 7 6 7 7 7 8 11
25 21 20 20 20 19 15 15 14 11 10 9 8 6 2 1 3 4 5 6 6 8 9 9 9 8 8 8 7 5 4 4 4 6 9 12 13 15
24 22 21 20 20 19 18 15 16 17 14 12 11 11 10 8 6 5 5 6 7 7 8 8 8 8 7 5 5 5 5 5 5 5 4 4 4 6
25 25 24 23 22 22 20 19 17 16 20 19 16 14 13 13 12 11 12 11 11 10 10 10 10 10 9 9 8 8 8 9 9 9 9 9 9 8

GFSNE_500_spd_009.txt.gz
Wind_Speed
70 62 55 46 39 39 41 44 46 44 40 42 42 46 47 51 49 48 44 41 47 54 62 71 83 89 90 87 86 85 82 81 81 83 84 82 81 78
53 44 32 35 40 42 43 47 52 51 44 44 43 45 45 46 48 49 48 43 40 42 50 58 66 76 86 87 87 85 82 80 81 81 82 84 84 83
35 34 35 38 40 41 48 53 50 53 53 39 42 38 40 40 40 43 49 49 45 41 40 44 49 61 72 80 86 86 84 81 81 80 81 83 86 85
35 36 38 41 44 44 52 48 49 48 45 41 41 42 44 44 43 40 41 46 50 46 43 41 38 45 60 72 77 82 84 81 80 78 79 80 84 87
36 38 41 44 47 47 49 47 45 42 44 45 43 45 46 46 45 43 41 40 46 50 48 44 40 36 43 57 69 77 77 77 77 81 82 82 81 84
38 41 43 48 49 49 48 47 40 41 45 48 49 50 47 43 42 42 42 41 41 46 49 47 44 39 38 42 51 65 75 79 76 77 79 81 81 82
39 41 45 50 49 51 48 41 39 43 46 50 49 47 42 38 37 38 40 41 37 42 47 49 47 43 39 38 39 42 56 72 78 77 78 78 78 82
39 43 47 47 47 47 44 38 40 44 47 48 46 42 37 31 31 34 36 39 39 43 48 49 48 46 41 40 38 32 37 40 57 78 85 81 79 81
39 42 44 45 47 44 37 36 39 44 47 46 41 36 31 30 30 32 35 36 38 41 46 53 49 48 44 41 41 38 41 36 36 48 69 78 81 83
40 42 41 43 45 40 32 34 38 41 43 42 35 30 24 24 25 26 29 33 38 41 47 50 51 49 49 44 42 39 40 47 46 48 43 59 79 84
39 40 41 42 40 33 29 31 35 39 40 37 29 25 20 18 17 13 15 22 29 36 40 43 45 48 51 50 46 44 43 45 49 48 45 51 57 67
38 39 40 39 35 28 26 29 32 35 36 34 27 22 17 12 10 9 11 13 21 28 33 36 38 41 47 51 51 48 47 50 45 47 45 49 52 65
36 37 37 34 31 25 24 27 30 32 33 30 26 20 14 9 5 12 12 13 18 25 28 31 35 37 41 48 53 48 45 49 51 47 49 46 46 43
36 34 35 30 28 22 21 25 28 29 30 27 24 19 14 7 2 3 10 12 18 24 25 25 26 31 38 45 48 44 42 40 45 46 52 50 52 53
34 33 32 26 25 20 19 22 24 25 26 25 21 18 14 10 6 2 7 11 15 20 23 25 27 31 35 40 42 40 38 37 39 41 43 50 52 56
33 32 29 24 21 18 17 18 20 22 22 21 19 16 14 10 7 6 5 7 10 13 17 22 25 28 30 33 35 35 34 34 35 37 39 41 43 46
31 29 27 23 22 21 15 15 17 18 18 18 17 15 12 10 7 5 6 8 10 12 16 19 21 23 26 27 29 30 31 32 34 35 37 39 40 43
29 27 24 21 20 22 17 14 14 15 15 14 14 14 12 7 5 5 5 8 10 13 15 17 19 21 22 24 26 27 28 30 32 35 39 42 45 46
28 25 22 20 20 19 19 15 14 14 13 12 11 10 10 9 6 2 4 6 8 10 12 14 15 16 18 20 20 20 20 21 25 29 31 34 38 42
27 24 21 19 19 19 18 17 14 13 12 11 10 8 7 5 5 5 4 6 7 9 11 11 11 12 12 12 12 13 14 15 15 15 14 12 10 13
27 25 23 21 20 19 18 16 16 15 15 13 11 10 8 5 2 1 4 5 7 8 9 10 11 12 12 12 11 11 11 13 13 14 14 12 11 9
25 26 25 24 22 20 19 18 17 15 15 17 16 12 11 10 9 6 6 7 8 9 10 11 12 12 12 12 12 11 12 11 10 9 8 9 12 15
21 23 25 26 25 24 22 20 19 18 18 17 18 20 17 14 14 14 13 12 11 12 13 13 13 14 13 13 13 12 12 12 12 12 11 10 9 8

GFSNE_500_spd_012.txt.gz
Wind_Speed
89 75 63 51 43 41 42 41 42 37 34 38 41 42 44 46 47 46 50 49 50 49 50 49 55 67 81 92 100 96 90 82 87 93 94 92 87 83
67 56 45 40 38 39 40 41 43 43 40 43 42 44 44 43 44 43 44 47 50 49 48 49 48 55 66 77 87 94 90 90 88 90 94 94 91 89
53 45 41 38 38 39 42 45 45 47 49 39 44 42 39 39 41 42 43 43 45 47 50 49 47 49 56 68 75 82 90 86 90 92 91 89 91 93
43 41 38 39 40 43 46 49 49 48 52 44 37 36 38 40 42 44 44 44 46 47 46 50 48 47 50 57 67 76 81 85 86 88 90 88 89 94
39 38 40 40 41 44 46 49 48 50 48 42 35 40 42 46 48 49 47 46 46 47 44 47 51 49 46 48 58 67 75 81 81 82 87 90 91 91
35 37 38 38 40 44 48 47 48 47 43 38 39 43 48 50 50 47 45 42 43 45 46 43 50 51 49 45 47 55 64 73 77 80 83 87 89 91
36 37 38 39 42 46 46 46 47 43 38 39 42 46 48 47 46 42 39 37 40 42 44 44 45 53 52 48 44 44 48 58 71 72 77 81 87 89
35 36 38 41 43 43 45 45 42 37 36 40 43 45 45 43 41 35 34 31 34 39 42 45 45 51 54 49 44 40 38 41 51 62 71 77 85 89
36 37 39 41 41 41 41 41 37 33 36 39 42 43 40 37 33 28 28 28 32 38 42 44 43 47 53 50 46 41 36 35 34 48 61 56 81 86
35 37 38 39 40 40 40 35 31 31 35 38 41 39 36 30 26 24 24 27 31 35 39 43 43 47 52 51 47 44 38 35 29 37 50 62 73 82
34 35 37 38 39 38 35 31 28 29 33 36 37 35 31 25 22 18 17 20 26 36 39 42 43 45 50 52 48 45 42 41 31 32 38 38 48 67
33 34 35 37 37 36 31 27 25 27 31 33 34 32 27 21 17 10 7 8 13 23 36 40 41 44 47 51 51 47 44 43 42 43 40 40 41 50
31 33 35 34 34 32 29 24 22 25 28 30 31 29 25 19 12 6 7 7 9 17 22 32 39 44 47 52 55 51 47 45 44 42 44 41 40 41
30 32 32 31 30 28 27 21 20 24 26 27 28 25 24 17 12 6 5 8 8 10 17 25 31 38 36 47 55 55 53 50 48 48 46 47 42 45
29 31 29 28 26 25 24 20 19 22 23 24 25 23 21 17 12 6 2 4 6 8 14 22 28 33 34 35 48 55 55 51 48 47 45 42 45 48
29 29 27 26 24 22 22 19 17 19 20 21 22 22 19 17 13 9 4 3 8 11 15 18 21 24 28 33 39 49 53 50 45 43 41 43 43 47
28 28 25 24 23 22 21 21 17 16 17 18 18 20 19 16 13 10 7 3 5 9 14 18 20 22 25 30 35 40 45 45 43 40 41 39 40 44
26 26 24 23 22 21 21 20 19 16 15 15 15 16 17 16 12 8 5 4 3 5 9 11 14 16 19 24 28 33 36 37 36 37 38 39 40 43
24 24 24 22 21 20 20 19 19 17 16 15 14 14 14 13 13 9 4 1 2 4 7 9 11 14 16 19 22 25 28 31 33 35 37 39 41 42
23 23 23 22 21 20 20 19 18 17 15 16 15 13 12 12 10 9 6 3 4 7 9 10 12 14 17 19 20 23 25 27 29 32 35 36 36 37
22 22 22 23 23 22 20 20 20 18 18 15 15 15 12 11 10 8 6 2 1 4 7 9 11 14 15 16 17 18 19 20 22 22 23 23 22 22
21 20 21 21 22 23 23 22 21 20 19 18 17 16 16 13 12 11 9 7 6 5 6 8 9 10 12 13 14 13 14 14 16 15 16 16 17 17
21 21 21 20 20 21 22 22 24 23 21 19 17 18 18 19 17 14 13 13 11 10 9 10 11 12 12 13 13 13 14 14 14 15 14 13 14 17

GFSNE_500_spd_015.txt.gz
Wind_Speed
95 87 81 74 66 56 50 45 43 40 37 37 40 45 47 48 49 47 46 45 46 48 45 46 50 55 62 70 77 89 94 93 91 88 88 90 89 89
83 77 70 60 52 47 44 43 44 44 44 42 44 48 47 48 47 45 44 43 44 45 47 48 49 49 50 55 61 68 81 86 89 88 89 91 93 93
74 67 56 50 46 43 42 43 44 46 50 45 46 47 48 47 45 41 39 39 39 41 41 43 46 48 48 49 51 55 62 74 78 82 90 94 94 93
64 54 47 43 41 41 43 44 45 47 51 51 43 46 45 43 39 40 40 41 42 44 46 46 43 44 48 49 48 48 54 64 72 77 80 90 92 93
52 46 41 40 39 41 42 43 46 49 49 48 44 44 40 38 39 42 45 46 45 45 48 50 46 44 44 49 50 46 48 58 69 76 87 90 93 91
46 42 39 38 38 40 43 46 47 46 45 46 44 38 36 39 43 46 46 46 44 43 44 48 46 44 45 45 50 47 45 50 63 70 86 88 90 91
43 40 39 38 39 42 44 45 45 44 44 43 39 35 38 43 45 46 45 43 40 39 39 40 42 41 44 43 49 49 44 45 52 66 74 88 92 91
41 39 37 38 39 41 41 42 43 43 42 40 34 35 40 43 44 43 41 39 32 33 32 37 40 39 45 45 48 48 43 41 43 53 66 75 87 92
37 35 37 39 39 41 41 42 41 41 38 34 33 37 39 41 40 37 37 32 26 26 29 34 39 43 44 45 44 47 44 40 38 42 53 60 75 84
37 37 37 39 39 40 41 39 40 36 33 31 35 37 39 38 36 35 31 29 24 22 28 31 34 38 42 43 41 44 43 40 36 35 42 55 59 72
37 36 36 39 38 38 38 37 35 32 29 29 32 34 36 34 31 31 27 21 18 21 27 32 33 36 41 40 39 45 40 40 35 31 33 44 61 55
35 36 34 35 37 37 35 34 31 29 25 27 31 33 33 31 28 25 21 12 12 13 21 30 33 34 34 36 39 47 42 41 36 34 32 43 56 56
34 34 34 34 35 34 32 31 29 25 23 26 29 30 31 29 24 21 17 11 11 12 14 18 30 32 34 38 41 50 43 43 41 42 33 39 55 61
33 31 31 33 32 30 30 29 28 23 21 24 26 27 29 26 22 18 13 10 10 12 10 11 20 32 36 38 40 50 46 43 40 45 40 38 38 53
31 30 30 31 30 27 26 27 26 23 20 22 24 25 26 25 22 16 12 8 7 8 5 7 13 24 31 34 38 49 51 46 44 42 46 44 42 40
30 29 29 30 27 25 25 25 23 23 19 19 21 22 23 24 20 17 11 7 4 3 3 2 8 16 24 29 32 45 53 51 48 48 46 45 49 45
29 28 28 29 27 24 23 22 23 22 19 18 19 20 20 21 21 17 13 8 4 3 3 4 6 10 17 23 25 37 51 55 53 51 49 49 46 46
29 27 26 27 26 24 23 23 22 21 20 17 17 18 18 18 18 17 12 9 5 2 2 7 10 12 15 19 24 29 39 50 53 52 50 47 45 45
27 25 24 24 25 23 22 22 22 21 20 19 17 16 16 17 16 16 14 8 5 1 3 5 8 12 16 20 22 25 29 35 43 47 46 43 40 40
25 23 23 22 23 23 23 23 22 22 21 20 18 17 15 15 14 14 13 10 6 4 3 4 6 9 11 13 15 19 23 26 30 33 36 37 38 38
24 23 23 22 21 22 22 24 25 26 24 22 19 17 16 15 14 12 11 9 6 4 3 6 8 10 11 13 15 18 21 24 27 30 33 34 36 37
24 23 23 23 22 21 21 21 23 24 26 26 23 19 17 16 15 14 11 10 8 6 4 3 5 8 10 13 15 17 19 22 25 28 29 29 31 32
27 26 24 24 23 23 22 21 21 23 25 26 27 23 18 16 17 16 16 13 11 9 9 8 7 7 9 10 12 13 15 17 18 20 20 20 20 20